[[{"header":{"parameterUnit":"m.s-1","parameterCategory":1,"la1":30.2991,"la2":30.254,"lo1":-89.0895,"lo2":-89.0444,"dy":0.0017,"dx":0.0017,"nx":28,"ny":28,"refTime":"2024-08-10T09:00:00:Z","depth":0,"parameterNumber":2,"parameterNumberName":"U-component_of_WINDS"},"data":[0,0,0,0,0,0,0,0,0,0,0,0,0,0,0,0,0,0,0,0,0,0,0,0,0,0,0,0,0,0,0,0,0,0,0,0,0,0,0,0,0,0,0,0,0,0,0,0,0,0,0,0,0,0,0,0,0,0,-0.9173,-0.9173,0,-0.913,-0.9129,-0.9129,-0.9084,-0.9084,-0.9083,-0.9083,-0.9038,-0.9037,-0.9037,0,0,0,0,0,0,0,0,0,0,0,0,0,-0.9218,-0.9217,-0.9174,-0.9173,-0.9172,-0.913,-0.9129,-0.9129,-0.9084,-0.9084,-0.9083,-0.9082,-0.9038,-0.9037,-0.9037,0,0,0,0,0,0,0,0,0,0,0,0,0,-0.9189,-0.9217,-0.9174,-0.9145,-0.9142,-0.913,-0.9129,-0.9129,-0.9085,-0.9084,-0.9083,-0.9082,-0.9038,-0.9037,-0.9037,-0.9049,0,0,-0.9034,-0.9033,0,0,0,0,0,0,0,0,-0.9191,-0.9187,-0.915,-0.9147,-0.9144,-0.9112,-0.9129,-0.9102,-0.9085,-0.9106,-0.9082,-0.9081,-0.9063,-0.906,-0.9054,-0.9047,-0.9045,-0.9034,-0.9033,-0.9033,-0.9032,0,0,0,0,0,0,0,-0.9193,-0.9189,-0.9156,-0.9149,-0.9146,-0.9134,-0.9129,-0.9123,-0.909,-0.9104,-0.9101,-0.9097,-0.9061,-0.9055,-0.9053,-0.9044,-0.9034,-0.9033,-0.9032,-0.9032,-0.9046,-0.9047,0,0,0,0,0,0,-0.9199,-0.9191,-0.9158,-0.9155,-0.9165,-0.9134,-0.9129,-0.9123,-0.909,-0.9085,-0.9097,-0.9095,-0.9057,-0.9054,-0.9051,-0.9064,-0.9033,-0.9032,-0.9031,-0.9045,-0.9046,-0.9047,0,0,0,0,0,0,-0.92,-0.9197,-0.9159,-0.9172,-0.9166,-0.9135,-0.9128,-0.9122,-0.9116,-0.9085,-0.9079,-0.9097,-0.9056,-0.9052,-0.905,-0.9062,-0.9031,-0.9031,-0.9044,-0.9045,-0.9046,-0.909,0,0,0,0,0,0,-0.9202,-0.9197,-0.9202,-0.9172,-0.9166,-0.9159,-0.9129,-0.9122,-0.9115,-0.9111,-0.9083,-0.9078,-0.9055,-0.9052,-0.9049,-0.906,-0.903,-0.9042,-0.9044,-0.9046,-0.9087,-0.9093,-0.9097,0,0,0,0,0,-0.9203,-0.9216,-0.9202,-0.9199,-0.9171,-0.916,-0.9156,-0.913,-0.9116,-0.912,-0.91,-0.9079,-0.9061,-0.9052,-0.9048,-0.9059,-0.9042,-0.9044,-0.9046,-0.9085,-0.9092,-0.9097,0,0,0,0,0,0,-0.9247,-0.9211,-0.9196,-0.9199,-0.9183,-0.9153,-0.9157,-0.9138,-0.9126,-0.9122,-0.909,-0.9085,-0.9086,-0.9072,-0.9063,-0.907,-0.9048,-0.905,-0.9079,-0.9085,-0.909,-0.9094,-0.9029,0,0,0,0,0,-0.9257,-0.9252,-0.922,-0.9226,-0.9219,-0.919,-0.9184,-0.9165,-0.9147,-0.914,-0.912,-0.9103,-0.9094,-0.9088,-0.9078,-0.9085,-0.9078,-0.909,-0.9095,-0.91,-0.9102,-0.9105,-0.911,-0.9054,-0.9054,-0.9054,0,0,-0.9278,-0.9258,-0.9256,-0.9235,-0.922,-0.9215,-0.9184,-0.918,-0.9176,-0.9139,-0.9136,-0.9121,-0.91,-0.9103,-0.9103,-0.9091,-0.9116,-0.9102,-0.9106,-0.9106,-0.9107,-0.9113,-0.9118,-0.9055,-0.9055,-0.9055,0,0,-0.9314,-0.9297,-0.9301,-0.9287,-0.9265,-0.9245,-0.9246,-0.9218,-0.9207,-0.9203,-0.9175,-0.917,-0.9154,-0.9141,-0.9132,-0.9162,-0.9142,-0.9159,-0.9186,-0.9189,-0.9193,-0.9197,-0.9209,-0.9213,-0.9161,-0.9161,-0.9161,0,-0.9343,-0.9334,-0.9305,-0.9303,-0.9294,-0.926,-0.9264,-0.9251,-0.9227,-0.9222,-0.9209,-0.9189,-0.9172,-0.9172,-0.9179,-0.9172,-0.9173,-0.9163,-0.9195,-0.9199,-0.9202,-0.9212,-0.9217,-0.9163,-0.9163,-0.9163,-0.9163,0,-0.9371,-0.9365,-0.937,-0.9348,-0.934,-0.9341,-0.9312,-0.9307,-0.9288,-0.927,-0.9267,-0.9246,-0.9231,-0.9229,-0.9211,-0.9225,-0.9219,-0.9201,-0.9179,-0.921,-0.922,-0.9223,-0.9167,-0.9166,-0.9165,-0.9165,0,0,-0.9434,-0.9395,-0.9398,-0.9388,-0.9361,-0.9356,-0.9355,-0.934,-0.9337,-0.9321,-0.9319,-0.9307,-0.929,-0.928,-0.926,-0.9262,-0.9288,-0.9244,-0.9243,-0.9254,-0.9304,-0.9319,-0.9324,-0.9274,-0.9275,-0.9275,-0.9306,0,-0.9466,-0.9462,-0.9436,-0.944,-0.9435,-0.9402,-0.9401,-0.9385,-0.9367,-0.936,-0.934,-0.9333,-0.931,-0.9304,-0.9305,-0.9285,-0.9298,-0.9282,-0.9273,-0.9274,-0.9281,-0.9329,-0.9345,-0.9375,-0.931,-0.931,-0.9311,0,-0.9503,-0.949,-0.9494,-0.9467,-0.9463,-0.9463,-0.9448,-0.9441,-0.9421,-0.9408,-0.9397,-0.9374,-0.9371,-0.9349,-0.9345,-0.9335,-0.9329,-0.9319,-0.9319,-0.9319,-0.9295,-0.9331,-0.9384,-0.9389,-0.9316,-0.9316,-0.9315,0,-0.9551,-0.9533,-0.9533,-0.9525,-0.9494,-0.9494,-0.9481,-0.946,-0.9453,-0.9439,-0.9435,-0.942,-0.9413,-0.9403,-0.9377,-0.9363,-0.9376,-0.9351,-0.9365,-0.9366,-0.9371,-0.9371,-0.9425,-0.9365,-0.9365,-0.9365,-0.9365,0,-0.959,-0.9594,-0.9555,-0.9555,-0.9558,-0.9527,-0.9531,-0.9515,-0.9497,-0.9493,-0.9463,-0.9461,-0.9426,-0.9419,-0.9399,-0.9399,-0.9395,-0.9385,-0.938,-0.9389,-0.939,-0.9386,-0.9384,-0.9366,-0.9366,-0.9366,-0.9365,0,-0.9645,-0.9618,-0.9616,-0.9586,-0.9579,-0.9583,-0.9557,-0.9556,-0.9536,-0.9532,-0.9529,-0.9499,-0.9489,-0.9462,-0.9445,-0.9431,-0.9438,-0.9427,-0.9445,-0.9442,-0.9458,-0.9457,-0.9512,-0.9518,-0.9453,-0.9454,-0.9454,0,-0.9672,-0.9674,-0.9645,-0.964,-0.9628,-0.9621,-0.9614,-0.9583,-0.9577,-0.9554,-0.9556,-0.9544,-0.9533,-0.952,-0.9496,-0.9483,-0.9473,-0.9493,-0.9471,-0.948,-0.9475,-0.9475,-0.9476,-0.9498,-0.9499,-0.95,-0.95,0,-0.9725,-0.9711,-0.9702,-0.9688,-0.968,-0.9667,-0.9653,-0.9651,-0.9617,-0.9611,-0.9601,-0.9592,-0.9575,-0.9564,-0.9547,-0.9534,-0.9512,-0.9507,-0.951,-0.952,-0.9531,-0.9526,-0.9459,-0.9506,-0.9506,-0.9505,-0.9505,-0.9505,-0.9767,-0.9768,-0.9747,-0.9738,-0.9724,-0.9711,-0.9709,-0.9689,-0.968,-0.9664,-0.9646,-0.9638,-0.9618,-0.9593,-0.9581,-0.9575,-0.9563,-0.9567,-0.9568,-0.957,-0.9574,-0.953,-0.9571,-0.9571,-0.9571,-0.9571,-0.957,0,-0.9819,-0.9804,-0.9796,-0.9777,-0.9769,-0.9748,-0.9731,-0.9726,-0.972,-0.9703,-0.9693,-0.9681,-0.967,-0.9645,-0.9632,-0.9632,-0.9621,-0.9629,-0.963,-0.9627,-0.9585,-0.9584,-0.9638,-0.9638,-0.9638,-0.9638,-0.9638,-0.9638,-0.9846,-0.9846,-0.983,-0.9823,-0.9808,-0.98,-0.9792,-0.978,-0.9767,-0.9756,-0.9746,-0.973,-0.971,-0.9694,-0.9683,-0.9676,-0.9673,-0.9685,-0.9675,-0.9636,-0.963,-0.9624,-0.9623,-0.9684,-0.9684,-0.9718,-0.9718,-0.9718]},{"header":{"parameterUnit":"m.s-1","parameterCategory":1,"la1":30.2991,"la2":30.254,"lo1":-89.0895,"lo2":-89.0444,"dy":0.0017,"dx":0.0017,"nx":28,"ny":28,"refTime":"2024-08-10T09:00:00:Z","depth":0,"parameterNumber":3,"parameterNumberName":"V-component_of_WINDS"},"data":[0,0,0,0,0,0,0,0,0,0,0,0,0,0,0,0,0,0,0,0,0,0,0,0,0,0,0,0,0,0,0,0,0,0,0,0,0,0,0,0,0,0,0,0,0,0,0,0,0,0,0,0,0,0,0,0,0,0,-2.163,-2.163,0,-2.1651,-2.1651,-2.1652,-2.1641,-2.1641,-2.164,-2.164,-2.1659,-2.166,-2.1661,0,0,0,0,0,0,0,0,0,0,0,0,0,-2.1578,-2.1579,-2.163,-2.163,-2.163,-2.1651,-2.1651,-2.1652,-2.1642,-2.1641,-2.164,-2.164,-2.1659,-2.166,-2.1661,0,0,0,0,0,0,0,0,0,0,0,0,0,-2.16,-2.158,-2.163,-2.1628,-2.1628,-2.1651,-2.1651,-2.1652,-2.1642,-2.1641,-2.164,-2.1639,-2.1658,-2.166,-2.1661,-2.1687,0,0,-2.1666,-2.1666,0,0,0,0,0,0,0,0,-2.1599,-2.1602,-2.1628,-2.1628,-2.1628,-2.1643,-2.164,-2.1663,-2.1642,-2.1636,-2.164,-2.1639,-2.1654,-2.1656,-2.1662,-2.1687,-2.1688,-2.1666,-2.1667,-2.1668,-2.1668,0,0,0,0,0,0,0,-2.1597,-2.1601,-2.1638,-2.1628,-2.1629,-2.1625,-2.1627,-2.1644,-2.1649,-2.1637,-2.1636,-2.1639,-2.1654,-2.166,-2.1662,-2.1689,-2.1666,-2.1667,-2.1668,-2.1669,-2.1737,-2.1738,0,0,0,0,0,0,-2.1596,-2.16,-2.1638,-2.1639,-2.1611,-2.1627,-2.1629,-2.1639,-2.1649,-2.165,-2.164,-2.1638,-2.1658,-2.166,-2.1663,-2.1694,-2.1667,-2.1669,-2.167,-2.1736,-2.1737,-2.1738,0,0,0,0,0,0,-2.1595,-2.16,-2.1637,-2.1619,-2.1624,-2.1629,-2.1639,-2.164,-2.1646,-2.1651,-2.1652,-2.1645,-2.1657,-2.166,-2.1681,-2.1694,-2.167,-2.1671,-2.1735,-2.1736,-2.1737,-2.1755,0,0,0,0,0,0,-2.1594,-2.1599,-2.161,-2.162,-2.1625,-2.1656,-2.164,-2.1641,-2.1649,-2.1648,-2.1657,-2.1657,-2.1657,-2.1679,-2.1682,-2.1696,-2.1672,-2.1734,-2.1735,-2.1737,-2.1754,-2.1757,-2.176,0,0,0,0,0,-2.1592,-2.1613,-2.161,-2.1615,-2.1638,-2.1656,-2.1659,-2.1659,-2.165,-2.166,-2.1664,-2.1657,-2.1692,-2.1681,-2.1685,-2.1699,-2.1733,-2.1735,-2.1737,-2.1752,-2.1756,-2.176,0,0,0,0,0,0,-2.1603,-2.1614,-2.1611,-2.1636,-2.1646,-2.1655,-2.1667,-2.1663,-2.1675,-2.1673,-2.1671,-2.1673,-2.1695,-2.1699,-2.1686,-2.1724,-2.1711,-2.1714,-2.1721,-2.1725,-2.1728,-2.1727,-2.1673,0,0,0,0,0,-2.1609,-2.1624,-2.1632,-2.1654,-2.1659,-2.1662,-2.167,-2.167,-2.1679,-2.1682,-2.1687,-2.1696,-2.1708,-2.1717,-2.1729,-2.1754,-2.1756,-2.1765,-2.1769,-2.1771,-2.1774,-2.1788,-2.1793,-2.1745,-2.1745,-2.1744,0,0,-2.1621,-2.1628,-2.1638,-2.1656,-2.1663,-2.1679,-2.1666,-2.1682,-2.1693,-2.1684,-2.1705,-2.1708,-2.1718,-2.1741,-2.1751,-2.1745,-2.1788,-2.1774,-2.1776,-2.1777,-2.1791,-2.1795,-2.1799,-2.1746,-2.1746,-2.1745,0,0,-2.165,-2.1657,-2.1676,-2.1684,-2.1695,-2.1697,-2.1702,-2.1711,-2.1714,-2.1734,-2.1729,-2.1741,-2.1763,-2.177,-2.1777,-2.1809,-2.1803,-2.1813,-2.183,-2.1844,-2.1847,-2.1851,-2.1863,-2.1867,-2.1815,-2.1815,-2.1815,0,-2.1662,-2.1686,-2.1686,-2.1703,-2.1712,-2.1705,-2.1725,-2.1731,-2.1746,-2.1751,-2.1744,-2.1772,-2.1778,-2.1803,-2.1811,-2.1816,-2.1821,-2.1812,-2.1847,-2.185,-2.1853,-2.1865,-2.1869,-2.1816,-2.1816,-2.1816,-2.1816,0,-2.1701,-2.1717,-2.1731,-2.1747,-2.1756,-2.1774,-2.1777,-2.1786,-2.1785,-2.1787,-2.1808,-2.1815,-2.1829,-2.1834,-2.1832,-2.1859,-2.1855,-2.1847,-2.1834,-2.1859,-2.187,-2.1874,-2.1818,-2.1817,-2.1817,-2.1817,0,0,-2.1738,-2.1754,-2.1759,-2.1766,-2.1778,-2.179,-2.1808,-2.1822,-2.1831,-2.1841,-2.1855,-2.1874,-2.1868,-2.1875,-2.1874,-2.1886,-2.1911,-2.1877,-2.1877,-2.1883,-2.1942,-2.1948,-2.1953,-2.1908,-2.1909,-2.1909,-2.1942,0,-2.1768,-2.1801,-2.1801,-2.183,-2.1846,-2.184,-2.1855,-2.1864,-2.1867,-2.188,-2.1883,-2.1897,-2.1886,-2.1891,-2.1902,-2.1906,-2.1923,-2.1903,-2.1921,-2.1922,-2.192,-2.1959,-2.1965,-2.1996,-2.1946,-2.1946,-2.1947,0,-2.1808,-2.1821,-2.1852,-2.1863,-2.1869,-2.1883,-2.1897,-2.1909,-2.1918,-2.192,-2.1928,-2.1925,-2.1943,-2.1929,-2.1952,-2.1939,-2.1946,-2.1949,-2.195,-2.1952,-2.1936,-2.1963,-2.2005,-2.201,-2.1953,-2.1953,-2.1952,0,-2.1833,-2.1858,-2.188,-2.1886,-2.1899,-2.1909,-2.1914,-2.1923,-2.1932,-2.1943,-2.1949,-2.1962,-2.1969,-2.1979,-2.1979,-2.1968,-2.2003,-2.1989,-2.2005,-2.2005,-2.2013,-2.2012,-2.2058,-2.2016,-2.2016,-2.2016,-2.2016,0,-2.1867,-2.1887,-2.1891,-2.1905,-2.1926,-2.1927,-2.1947,-2.1952,-2.196,-2.1974,-2.1969,-2.1982,-2.1982,-2.1995,-2.1995,-2.2015,-2.2018,-2.2019,-2.2019,-2.202,-2.202,-2.2025,-2.2023,-2.2017,-2.2017,-2.2017,-2.2017,0,-2.1899,-2.1903,-2.1927,-2.1937,-2.194,-2.1956,-2.1964,-2.1977,-2.198,-2.1997,-2.2001,-2.2005,-2.202,-2.2022,-2.2039,-2.2039,-2.2063,-2.206,-2.2061,-2.206,-2.2076,-2.2075,-2.2127,-2.2134,-2.2088,-2.2088,-2.2088,0,-2.1921,-2.1936,-2.1949,-2.1958,-2.1965,-2.198,-2.1989,-2.199,-2.2,-2.2012,-2.2023,-2.2038,-2.205,-2.2074,-2.2078,-2.2091,-2.2089,-2.2107,-2.2091,-2.2092,-2.209,-2.209,-2.2092,-2.211,-2.211,-2.2111,-2.2111,0,-2.196,-2.1961,-2.1976,-2.1991,-2.2002,-2.2014,-2.2025,-2.2032,-2.2034,-2.2045,-2.2062,-2.2071,-2.2089,-2.2104,-2.2117,-2.2121,-2.2117,-2.2116,-2.212,-2.2122,-2.2122,-2.2123,-2.207,-2.2115,-2.2114,-2.2114,-2.2114,-2.2114,-2.1988,-2.2001,-2.2013,-2.2029,-2.2037,-2.2048,-2.2061,-2.2065,-2.2079,-2.2095,-2.2094,-2.2112,-2.2121,-2.2138,-2.2144,-2.2157,-2.2151,-2.2157,-2.2159,-2.2161,-2.2163,-2.2119,-2.2159,-2.2159,-2.2159,-2.2159,-2.2159,0,-2.2027,-2.2035,-2.205,-2.2066,-2.2078,-2.2074,-2.2085,-2.2096,-2.2112,-2.2121,-2.2134,-2.2152,-2.2167,-2.2172,-2.2186,-2.2196,-2.2194,-2.2199,-2.2199,-2.22,-2.2167,-2.2162,-2.2201,-2.2201,-2.2201,-2.2201,-2.2201,-2.2201,-2.2049,-2.2072,-2.2075,-2.2102,-2.2108,-2.2127,-2.2134,-2.2143,-2.2151,-2.2173,-2.2185,-2.2189,-2.2196,-2.2211,-2.2224,-2.2225,-2.223,-2.2237,-2.2237,-2.2207,-2.2202,-2.2198,-2.2194,-2.2238,-2.2238,-2.2269,-2.227,-2.227]}]]